SKYSAT-C11

Last updated on Mon Sep 21 2026 00:02:46 GMT+0000 (Coordinated Universal Time)

1 42987U 17068A 26263.41910485 .00027922 00000+0 30881-3 0 9997 2 42987 97.4460 56.8289 0000664 47.9419 312.1896 15.62997359498096
UTC large
Height (km)
Speed (km/s)
/
Latitude / Longitude
Inclination (degrees)
Orbital Period (minutes)
Azimuth
Elevation
Range (km)
Doppler Factor

Next 0 passes for location: London (51.5072 / 0.1276)

No passes found over London.
SKYSAT-C11